Вернуться в каталог

SPNEX

АктивенНаукаSSO
NORAD 67000·PAYLOAD·🇨🇳 China
Это название спутника еще не подтверждено официальными источниками.

Запущен Dec 10, 2025 с Jiuquan Satellite Launch Center

Loading…

Ближайшие Пролёты (ближайшие 24 часа)

TLE

СвежийSource: Space-Track

Эпоха: Sep 14, 2026, 10:38 UTC

1 67000U 25292H   26257.44340164  .00004322  00000-0  28087-3 0  9990
2 67000  97.6310 332.9795 0015575  63.4295 296.8527 15.08447976 41781

Отслеживайте SPNEX в реальном времени с AllMySat

Download on the App Store